Regional Weather Roundup
Issued by NWS

Home | Current Version | Previous Version | Text Only | Print | Product List | Glossary On
Versions: 1 2 3 4 5 6 7 8 9 10 11 12 13 14 15 16 17 18 19 20 21 22 23 24 25 26 27 28 29 30 31 32 33 34 35 36 37 38 39 40 41 42 43 44 45 46 47 48 49 50
000
ASUS42 KFFC 260610
RWRGA
WEATHER ROUNDUP FOR GEORGIA
NATIONAL WEATHER SERVICE PEACHTREE CITY GA
200 AM EDT SUN MAR 26 2017

NOTE: "FAIR" INDICATES FEW OR NO CLOUDS BELOW 12,000 FEET WITH NO
SIGNIFICANT WEATHER AND/OR OBSTRUCTIONS TO VISIBILITY.

* = USE WITH CAUTION. THE STATIONS MARKED WITH AN ASTERISK MAY NOT
REPORT WEATHER SUCH AS PRECIPITATION, FOG, OR THUNDER AND ARE NOT
QUALITY CONTROLLED BY NWS.

THE REMARK "TC" DENOTES TEMPERATURE READING IN DEGREES CELSIUS.

GAZ001>058-260700-
NORTH GEORGIA

CITY           SKY/WX    TMP DP  RH WIND       PRES   REMARKS
ATLANTA        CLOUDY    61  58  90 CALM      30.11F
6HR MIN TEMP:  61; 6HR MAX TEMP:  71; 6HR PCP:  0.07;

ATHENS         MOCLDY    63  54  72 S8        30.15S
6HR MIN TEMP:  61; 6HR MAX TEMP:  67;

CHAMBLEE       LGT RAIN  59  56  89 SE5       30.12R
6HR MIN TEMP:  59; 6HR MAX TEMP:  71; 6HR PCP:  0.10;

PEACHTREE CITY CLOUDY    61  60  97 CALM      30.12F
6HR MIN TEMP:  61; 6HR MAX TEMP:  71; 6HR PCP:  0.02;

ROME           LGT RAIN  60  57  89 SE6       30.05F
6HR MIN TEMP:  60; 6HR MAX TEMP:  73; 6HR PCP:  0.20;

WEST ATLANTA   CLOUDY    61  57  87 CALM      30.11F
6HR MIN TEMP:  61; 6HR MAX TEMP:  72; 6HR PCP:  0.06;

GAINESVILLE    MOCLDY    62  53  72 SE9       30.14F
6HR MIN TEMP:  62; 6HR MAX TEMP:  68;

CARTERSVILLE   LGT RAIN  60  58  92 SE6       30.09F
6HR MIN TEMP:  60; 6HR MAX TEMP:  71; 6HR PCP:  0.14;



CITY           SKY/WX    TMP DP  RH WIND       PRES   REMARKS
DALTON*        RAIN      59  59 100 SE3       30.08F
MARIETTA       LGT RAIN  59  57  94 SE5       30.11F FOG
CANTON*        LGT RAIN  59  54  82 CALM      30.13S
$$

GAZ059>098-102>109-260700-
CENTRAL GEORGIA

CITY           SKY/WX    TMP DP  RH WIND       PRES   REMARKS
AUGUSTA-BUSH   CLEAR     61  54  77 SE3       30.19R
6HR MIN TEMP:  60; 6HR MAX TEMP:  72;

AUGUSTA-DANIEL CLEAR     63  52  67 S7        30.19S
6HR MIN TEMP:  62; 6HR MAX TEMP:  73;

COLUMBUS       CLOUDY    63  59  87 CALM      30.12F
6HR MIN TEMP:  63; 6HR MAX TEMP:  75; 6HR PCP:  0.12;

MACON          PTCLDY    65  55  70 SE9       30.14F
6HR MIN TEMP:  62; 6HR MAX TEMP:  73;

ROBINS AFB     PTCLDY    65  56  72 SE10      30.14S


CITY           SKY/WX    TMP DP  RH WIND       PRES   REMARKS
LAGRANGE*      RAIN      63  63 100 SE6       30.11F
SYLVANIA*      CLEAR    N/A N/A N/A CALM      30.19S
MILLEDGEVILLE* PTCLDY    64  59  82 CALM      30.16S
$$

GAZ099>101-110>166-260700-
SOUTH GEORGIA

CITY           SKY/WX    TMP DP  RH WIND       PRES   REMARKS
SAVANNAH       PTCLDY    63  55  75 SE8       30.18F
6HR MIN TEMP:  61; 6HR MAX TEMP:  68;

VALDOSTA       PTCLDY    62  57  83 SE5       30.16R
6HR MIN TEMP:  62; 6HR MAX TEMP:  72;

ALMA           CLOUDY    62  59  90 CALM      30.17S
6HR MIN TEMP:  62; 6HR MAX TEMP:  71;

ST SIMONS      PTCLDY    66  60  81 SE10      30.16F
6HR MIN TEMP:  65; 6HR MAX TEMP:  67;

FT STEWART     PTCLDY    60  56  89 SE5       30.15F
ALBANY         CLOUDY    65  56  72 CALM      30.15S
HUNTER AFB     PTCLDY    62  58  86 SE7       30.16F
MOODY AFB      CLEAR     64  57  79 SE6       30.15S
BRUNSWICK      PTCLDY    66  63  88 SE7       30.17F


CITY           SKY/WX    TMP DP  RH WIND       PRES   REMARKS
BAINBRIDGE*    PTCLDY    63  57  82 CALM      30.13S
MOULTRIE*      PTCLDY    64  55  72 SE3       30.16F HAZE
VIDALIA*       CLOUDY    64  57  77 S3        30.19R
WAYCROSS*      CLOUDY    66  64  93 CALM      30.18R
DOUGLAS*       PTCLDY    63  55  77 CALM      30.18F
$$



USA.gov is the U.S. government's official web portal to all federal, state and local government web resources and services.